[[{"header":{"parameterUnit":"m.s-1","parameterCategory":1,"la1":30.2991,"la2":30.254,"lo1":-89.0895,"lo2":-89.0444,"dy":0.0017,"dx":0.0017,"nx":28,"ny":28,"refTime":"2023-07-30T09:00:00:Z","depth":0,"parameterNumber":2,"parameterNumberName":"U-component_of_WINDS"},"data":[0,0,0,0,0,0,0,0,0,0,0,0,0,0,0,0,0,0,0,0,0,0,0,0,0,0,0,0,0,0,0,0,0,0,0,0,0,0,0,0,0,0,0,0,0,0,0,0,0,0,0,0,0,0,0,0,0,0,-0.5876,-0.5876,0,-0.5941,-0.5941,-0.5942,-0.6038,-0.604,-0.6042,-0.6043,-0.6103,-0.6103,-0.6103,0,0,0,0,0,0,0,0,0,0,0,0,0,-0.5829,-0.5829,-0.5876,-0.5877,-0.5877,-0.5941,-0.5941,-0.5942,-0.6038,-0.604,-0.6042,-0.6044,-0.6103,-0.6103,-0.6103,0,0,0,0,0,0,0,0,0,0,0,0,0,-0.5866,-0.5829,-0.5876,-0.5933,-0.5939,-0.594,-0.5941,-0.5943,-0.6037,-0.604,-0.6043,-0.6045,-0.6103,-0.6103,-0.6103,-0.6052,0,0,-0.6103,-0.6103,0,0,0,0,0,0,0,0,-0.5864,-0.5868,-0.5924,-0.5929,-0.5935,-0.5984,-0.5947,-0.5979,-0.6037,-0.6,-0.6043,-0.6046,-0.6061,-0.6064,-0.6071,-0.6054,-0.6057,-0.6103,-0.6103,-0.6103,-0.6103,0,0,0,0,0,0,0,-0.5861,-0.5866,-0.5901,-0.5924,-0.5931,-0.5953,-0.5962,-0.5953,-0.6015,-0.6003,-0.601,-0.6017,-0.6064,-0.607,-0.6073,-0.6058,-0.6103,-0.6103,-0.6103,-0.6103,-0.6,-0.5998,0,0,0,0,0,0,-0.5851,-0.5863,-0.5899,-0.5903,-0.5906,-0.5952,-0.5961,-0.5966,-0.6015,-0.6025,-0.6015,-0.6021,-0.6069,-0.6073,-0.6075,-0.6015,-0.6103,-0.6103,-0.6103,-0.6003,-0.6,-0.5997,0,0,0,0,0,0,-0.585,-0.5854,-0.5897,-0.5885,-0.5892,-0.595,-0.5954,-0.5966,-0.5972,-0.6024,-0.6035,-0.601,-0.6071,-0.6075,-0.6057,-0.6019,-0.6103,-0.6103,-0.6006,-0.6002,-0.5998,-0.5897,0,0,0,0,0,0,-0.5848,-0.5853,-0.5835,-0.5884,-0.5893,-0.5878,-0.5952,-0.5965,-0.5972,-0.5981,-0.6022,-0.6032,-0.6074,-0.6056,-0.6057,-0.602,-0.6103,-0.601,-0.6004,-0.6,-0.5904,-0.589,-0.5878,0,0,0,0,0,-0.5846,-0.5803,-0.5833,-0.5837,-0.5872,-0.5876,-0.588,-0.5931,-0.5969,-0.595,-0.5984,-0.603,-0.6025,-0.6053,-0.6055,-0.6018,-0.6012,-0.6006,-0.6,-0.5909,-0.5892,-0.5878,0,0,0,0,0,0,-0.5744,-0.581,-0.5845,-0.5817,-0.584,-0.5892,-0.587,-0.5912,-0.5924,-0.5931,-0.5993,-0.6002,-0.5974,-0.5996,-0.6026,-0.597,-0.6025,-0.6019,-0.5956,-0.594,-0.5928,-0.592,-0.6103,0,0,0,0,0,-0.572,-0.5719,-0.5776,-0.5745,-0.5756,-0.5811,-0.5814,-0.5852,-0.5878,-0.5888,-0.592,-0.5942,-0.5945,-0.5945,-0.5951,-0.591,-0.5917,-0.5885,-0.5872,-0.5861,-0.5853,-0.5829,-0.5814,-0.5977,-0.5977,-0.5977,0,0,-0.5666,-0.5702,-0.5697,-0.5726,-0.5749,-0.5744,-0.5818,-0.5811,-0.5807,-0.5886,-0.5869,-0.5895,-0.5923,-0.5892,-0.588,-0.5908,-0.5811,-0.5854,-0.5845,-0.5842,-0.5821,-0.5806,-0.5792,-0.5973,-0.5973,-0.5974,0,0,-0.5565,-0.5595,-0.5571,-0.5593,-0.5627,-0.5665,-0.5659,-0.5705,-0.5725,-0.5711,-0.5769,-0.5766,-0.5771,-0.5787,-0.5796,-0.5704,-0.5745,-0.5705,-0.5635,-0.5611,-0.5598,-0.5587,-0.5549,-0.5535,-0.5698,-0.5698,-0.5698,0,-0.5493,-0.5491,-0.5552,-0.5541,-0.555,-0.5626,-0.56,-0.5618,-0.5652,-0.5655,-0.5689,-0.5695,-0.572,-0.5692,-0.567,-0.5677,-0.5669,-0.5697,-0.5596,-0.5585,-0.5575,-0.554,-0.5526,-0.5692,-0.5693,-0.5694,-0.5694,0,-0.5398,-0.5396,-0.5373,-0.5405,-0.5413,-0.5394,-0.5451,-0.5451,-0.549,-0.5523,-0.5506,-0.5539,-0.5551,-0.5549,-0.5586,-0.5526,-0.5542,-0.5585,-0.564,-0.5553,-0.552,-0.5508,-0.5684,-0.5686,-0.5688,-0.5689,0,0,-0.5229,-0.5299,-0.5288,-0.5303,-0.5348,-0.5346,-0.5332,-0.5346,-0.5343,-0.5365,-0.535,-0.5354,-0.5394,-0.5404,-0.5444,-0.5424,-0.5344,-0.5469,-0.5471,-0.544,-0.5274,-0.5236,-0.522,-0.5375,-0.5372,-0.5371,-0.527,0,-0.5132,-0.5111,-0.5167,-0.5131,-0.5127,-0.5201,-0.5187,-0.5212,-0.5243,-0.5244,-0.5279,-0.5278,-0.5333,-0.5339,-0.5324,-0.5357,-0.531,-0.5366,-0.5357,-0.5355,-0.534,-0.5204,-0.5164,-0.5067,-0.5258,-0.5256,-0.5255,0,-0.5015,-0.5032,-0.4995,-0.5043,-0.5043,-0.503,-0.5047,-0.5049,-0.5078,-0.5102,-0.5115,-0.5163,-0.5148,-0.5207,-0.5186,-0.5223,-0.5223,-0.5239,-0.5237,-0.5232,-0.5294,-0.5189,-0.5038,-0.502,-0.5236,-0.5238,-0.5239,0,-0.4887,-0.4903,-0.4882,-0.4894,-0.4949,-0.4937,-0.496,-0.4993,-0.4997,-0.5013,-0.5016,-0.5029,-0.5034,-0.5043,-0.5091,-0.5131,-0.5063,-0.5127,-0.5078,-0.5076,-0.5054,-0.5053,-0.4894,-0.5066,-0.5066,-0.5066,-0.5067,0,-0.4769,-0.4742,-0.4825,-0.4811,-0.4784,-0.4849,-0.4819,-0.4849,-0.4877,-0.4869,-0.4935,-0.4925,-0.4994,-0.4991,-0.503,-0.5003,-0.5007,-0.5023,-0.5032,-0.5013,-0.501,-0.5008,-0.5014,-0.5063,-0.5063,-0.5064,-0.5065,0,-0.4618,-0.4674,-0.4655,-0.4711,-0.4725,-0.4701,-0.4747,-0.4736,-0.4774,-0.4762,-0.4763,-0.4821,-0.4821,-0.4873,-0.4884,-0.491,-0.4864,-0.489,-0.4854,-0.4859,-0.4805,-0.4807,-0.4633,-0.4612,-0.4804,-0.4802,-0.48,0,-0.4535,-0.4516,-0.4571,-0.4572,-0.4591,-0.4591,-0.4597,-0.4663,-0.4666,-0.4699,-0.4682,-0.4689,-0.4696,-0.4692,-0.4733,-0.4741,-0.4763,-0.4702,-0.4763,-0.4744,-0.4754,-0.4751,-0.4747,-0.4686,-0.4683,-0.4681,-0.468,0,-0.4379,-0.4409,-0.4416,-0.4433,-0.444,-0.4456,-0.4476,-0.4472,-0.4543,-0.4543,-0.4545,-0.4551,-0.4564,-0.4567,-0.4583,-0.4604,-0.465,-0.4662,-0.4649,-0.4625,-0.4603,-0.4608,-0.4811,-0.4663,-0.4665,-0.4666,-0.4667,-0.4668,-0.4255,-0.4241,-0.4278,-0.4283,-0.4307,-0.4324,-0.4315,-0.4354,-0.4358,-0.4373,-0.4413,-0.4407,-0.4437,-0.4464,-0.4481,-0.4476,-0.4506,-0.449,-0.4484,-0.4477,-0.4464,-0.4611,-0.448,-0.448,-0.4481,-0.4481,-0.4482,0,-0.4097,-0.4126,-0.4131,-0.4158,-0.4162,-0.4214,-0.4239,-0.4238,-0.4233,-0.4259,-0.4266,-0.4267,-0.4272,-0.4315,-0.4324,-0.4311,-0.4333,-0.431,-0.4308,-0.4311,-0.444,-0.4446,-0.4292,-0.4292,-0.4292,-0.4293,-0.4293,-0.4293,-0.4015,-0.3993,-0.4027,-0.4016,-0.4044,-0.4041,-0.4051,-0.4066,-0.4087,-0.4086,-0.4091,-0.4121,-0.4153,-0.4165,-0.417,-0.4183,-0.4179,-0.4148,-0.4166,-0.4284,-0.4302,-0.4319,-0.4325,-0.4148,-0.4148,-0.4037,-0.4036,-0.4035]},{"header":{"parameterUnit":"m.s-1","parameterCategory":1,"la1":30.2991,"la2":30.254,"lo1":-89.0895,"lo2":-89.0444,"dy":0.0017,"dx":0.0017,"nx":28,"ny":28,"refTime":"2023-07-30T09:00:00:Z","depth":0,"parameterNumber":3,"parameterNumberName":"V-component_of_WINDS"},"data":[0,0,0,0,0,0,0,0,0,0,0,0,0,0,0,0,0,0,0,0,0,0,0,0,0,0,0,0,0,0,0,0,0,0,0,0,0,0,0,0,0,0,0,0,0,0,0,0,0,0,0,0,0,0,0,0,0,0,-1.4836,-1.4837,0,-1.4854,-1.4854,-1.4855,-1.4868,-1.4868,-1.4868,-1.4868,-1.4886,-1.4886,-1.4886,0,0,0,0,0,0,0,0,0,0,0,0,0,-1.4813,-1.4813,-1.4836,-1.4837,-1.4837,-1.4854,-1.4854,-1.4855,-1.4868,-1.4868,-1.4868,-1.4868,-1.4885,-1.4886,-1.4886,0,0,0,0,0,0,0,0,0,0,0,0,0,-1.4826,-1.4813,-1.4836,-1.4846,-1.4847,-1.4854,-1.4854,-1.4855,-1.4868,-1.4868,-1.4868,-1.4869,-1.4885,-1.4886,-1.4886,-1.4886,0,0,-1.4888,-1.4888,0,0,0,0,0,0,0,0,-1.4825,-1.4827,-1.4844,-1.4845,-1.4846,-1.4859,-1.4852,-1.4865,-1.4868,-1.486,-1.4868,-1.4869,-1.4877,-1.4878,-1.4881,-1.4886,-1.4887,-1.4888,-1.4888,-1.4888,-1.4889,0,0,0,0,0,0,0,-1.4824,-1.4826,-1.4843,-1.4844,-1.4846,-1.4849,-1.4851,-1.4855,-1.4867,-1.4861,-1.4862,-1.4864,-1.4877,-1.488,-1.4881,-1.4887,-1.4888,-1.4888,-1.4889,-1.4889,-1.4893,-1.4893,0,0,0,0,0,0,-1.4822,-1.4825,-1.4843,-1.4844,-1.4836,-1.4849,-1.4851,-1.4855,-1.4867,-1.4869,-1.4863,-1.4864,-1.4879,-1.4881,-1.4882,-1.4882,-1.4888,-1.4889,-1.4889,-1.4894,-1.4893,-1.4893,0,0,0,0,0,0,-1.4822,-1.4824,-1.4842,-1.4835,-1.4838,-1.4849,-1.4853,-1.4855,-1.4858,-1.4869,-1.4871,-1.4864,-1.4879,-1.4881,-1.4885,-1.4882,-1.4889,-1.489,-1.4894,-1.4894,-1.4893,-1.4881,0,0,0,0,0,0,-1.4821,-1.4823,-1.4824,-1.4835,-1.4838,-1.4845,-1.4853,-1.4855,-1.4859,-1.486,-1.487,-1.4872,-1.488,-1.4884,-1.4885,-1.4883,-1.489,-1.4894,-1.4894,-1.4893,-1.4882,-1.4881,-1.488,0,0,0,0,0,-1.482,-1.4819,-1.4823,-1.4825,-1.4838,-1.4845,-1.4846,-1.4855,-1.4859,-1.4859,-1.4866,-1.4872,-1.4883,-1.4884,-1.4886,-1.4884,-1.4894,-1.4894,-1.4893,-1.4882,-1.4881,-1.488,0,0,0,0,0,0,-1.4807,-1.4821,-1.4826,-1.4829,-1.4835,-1.4847,-1.4847,-1.4853,-1.4859,-1.486,-1.487,-1.4872,-1.4875,-1.488,-1.4881,-1.4884,-1.4889,-1.4889,-1.488,-1.4879,-1.4878,-1.4876,-1.489,0,0,0,0,0,-1.4804,-1.4809,-1.4821,-1.4822,-1.4825,-1.4836,-1.4839,-1.4845,-1.4852,-1.4855,-1.4863,-1.4869,-1.4874,-1.4877,-1.4882,-1.4883,-1.4885,-1.4882,-1.4881,-1.488,-1.488,-1.488,-1.4879,-1.4892,-1.4892,-1.4892,0,0,-1.4799,-1.4807,-1.4809,-1.482,-1.4826,-1.483,-1.4838,-1.4842,-1.4845,-1.4856,-1.4859,-1.4865,-1.4873,-1.4875,-1.4877,-1.488,-1.4877,-1.488,-1.4879,-1.4879,-1.488,-1.4879,-1.4878,-1.4892,-1.4892,-1.4892,0,0,-1.4791,-1.4798,-1.48,-1.4806,-1.4815,-1.4822,-1.4822,-1.4833,-1.4837,-1.4842,-1.485,-1.4853,-1.4861,-1.4867,-1.487,-1.4865,-1.487,-1.4866,-1.486,-1.486,-1.4859,-1.4858,-1.4856,-1.4855,-1.4866,-1.4866,-1.4866,0,-1.4784,-1.479,-1.48,-1.4803,-1.4808,-1.4818,-1.482,-1.4825,-1.4835,-1.4837,-1.4841,-1.4851,-1.4857,-1.4861,-1.4859,-1.4862,-1.4863,-1.4865,-1.4859,-1.4858,-1.4857,-1.4855,-1.4854,-1.4865,-1.4865,-1.4865,-1.4865,0,-1.478,-1.4784,-1.4785,-1.4794,-1.4798,-1.4801,-1.4811,-1.4814,-1.482,-1.4826,-1.483,-1.4838,-1.4845,-1.4846,-1.4852,-1.485,-1.4852,-1.4857,-1.4862,-1.4855,-1.4853,-1.4852,-1.4864,-1.4865,-1.4865,-1.4865,0,0,-1.4764,-1.4779,-1.4779,-1.4784,-1.4795,-1.4798,-1.4801,-1.4808,-1.481,-1.4817,-1.4819,-1.4826,-1.483,-1.4834,-1.4841,-1.4841,-1.4836,-1.4846,-1.4847,-1.4844,-1.4834,-1.483,-1.4829,-1.484,-1.484,-1.484,-1.4833,0,-1.4757,-1.4763,-1.4772,-1.4775,-1.4779,-1.4789,-1.4792,-1.4798,-1.4805,-1.4809,-1.4815,-1.482,-1.4826,-1.4828,-1.4829,-1.4836,-1.4834,-1.4837,-1.4842,-1.4842,-1.4839,-1.4828,-1.4823,-1.4817,-1.4833,-1.4833,-1.4833,0,-1.4751,-1.4757,-1.476,-1.4771,-1.4773,-1.4775,-1.4781,-1.4785,-1.4793,-1.4798,-1.4802,-1.481,-1.4813,-1.4818,-1.4822,-1.4824,-1.4827,-1.483,-1.483,-1.4831,-1.4836,-1.4827,-1.4815,-1.4814,-1.4832,-1.4832,-1.4832,0,-1.4738,-1.4747,-1.475,-1.4754,-1.4766,-1.4767,-1.4773,-1.4781,-1.4784,-1.479,-1.4793,-1.4799,-1.4802,-1.4807,-1.4815,-1.4818,-1.4818,-1.4824,-1.4821,-1.4821,-1.482,-1.482,-1.4808,-1.4823,-1.4823,-1.4823,-1.4823,0,-1.4729,-1.4731,-1.4745,-1.4746,-1.4748,-1.4759,-1.476,-1.4766,-1.4773,-1.4776,-1.4786,-1.4788,-1.4799,-1.4803,-1.481,-1.4812,-1.4813,-1.4817,-1.4818,-1.4816,-1.4815,-1.4817,-1.4817,-1.4823,-1.4823,-1.4823,-1.4823,0,-1.4715,-1.4725,-1.4729,-1.474,-1.4743,-1.4744,-1.4754,-1.4756,-1.4763,-1.4766,-1.4767,-1.4778,-1.4783,-1.4792,-1.4799,-1.4804,-1.4804,-1.4808,-1.4802,-1.4803,-1.4799,-1.4799,-1.4787,-1.4785,-1.4802,-1.4802,-1.4802,0,-1.4709,-1.471,-1.4722,-1.4725,-1.473,-1.4734,-1.4738,-1.4748,-1.4751,-1.476,-1.4761,-1.4767,-1.4772,-1.4779,-1.4787,-1.4793,-1.4796,-1.4791,-1.4797,-1.4794,-1.4795,-1.4794,-1.4794,-1.479,-1.4789,-1.4789,-1.4789,0,-1.4696,-1.4701,-1.4706,-1.4713,-1.4717,-1.4723,-1.4729,-1.473,-1.4742,-1.4745,-1.4751,-1.4755,-1.4762,-1.4767,-1.4774,-1.4779,-1.4786,-1.4787,-1.4787,-1.4784,-1.478,-1.4781,-1.4798,-1.4787,-1.4788,-1.4788,-1.4788,-1.4788,-1.4685,-1.4687,-1.4695,-1.4701,-1.4706,-1.4712,-1.4714,-1.4722,-1.4726,-1.4733,-1.4739,-1.4744,-1.4752,-1.4762,-1.4766,-1.477,-1.4773,-1.4772,-1.4772,-1.4771,-1.477,-1.478,-1.4771,-1.4771,-1.4771,-1.4771,-1.4771,0,-1.4673,-1.4679,-1.4683,-1.4692,-1.4696,-1.4702,-1.471,-1.4712,-1.4716,-1.4723,-1.4728,-1.4734,-1.4739,-1.4748,-1.4754,-1.4755,-1.4758,-1.4756,-1.4756,-1.4757,-1.4767,-1.4767,-1.4753,-1.4753,-1.4753,-1.4753,-1.4753,-1.4753,-1.4666,-1.4669,-1.4675,-1.468,-1.4687,-1.4691,-1.4695,-1.47,-1.4705,-1.4711,-1.4716,-1.4722,-1.4729,-1.4736,-1.4741,-1.4743,-1.4745,-1.4741,-1.4745,-1.4754,-1.4756,-1.4758,-1.4757,-1.4742,-1.4742,-1.4734,-1.4734,-1.4734]}]]